TimeEDT,TemperatureF,Dew PointF,Humidity,Sea Level PressureIn,VisibilityMPH,Wind Direction,Wind SpeedMPH,Gust SpeedMPH,PrecipitationIn,Events,Conditions,WindDirDegrees,DateUTC
12:53 AM,48.0,43.0,83,30.09,10.0,Calm,Calm,-,N/A,,Clear,0,2013-09-15 04:53:00
1:53 AM,51.1,43.0,74,30.09,10.0,South,4.6,-,N/A,,Clear,180,2013-09-15 05:53:00
2:53 AM,52.0,43.0,71,30.09,10.0,South,4.6,-,N/A,,Clear,170,2013-09-15 06:53:00
3:53 AM,52.0,42.1,69,30.09,10.0,South,3.5,-,N/A,,Clear,180,2013-09-15 07:53:00
4:53 AM,52.0,42.1,69,30.10,10.0,South,6.9,-,N/A,,Clear,190,2013-09-15 08:53:00
5:53 AM,52.0,43.0,71,30.09,10.0,South,6.9,-,N/A,,Clear,180,2013-09-15 09:53:00
6:53 AM,52.0,44.1,74,30.10,10.0,South,6.9,-,N/A,,Clear,190,2013-09-15 10:53:00
7:53 AM,52.0,44.1,74,30.12,10.0,South,4.6,-,N/A,,Clear,190,2013-09-15 11:53:00
8:53 AM,55.9,45.0,67,30.12,10.0,South,8.1,-,N/A,,Clear,190,2013-09-15 12:53:00
9:53 AM,59.0,48.0,67,30.13,10.0,SSW,5.8,-,N/A,,Clear,210,2013-09-15 13:53:00
10:53 AM,64.9,48.0,54,30.12,10.0,SSW,6.9,-,N/A,,Clear,200,2013-09-15 14:53:00
11:53 AM,68.0,46.0,45,30.10,10.0,SW,6.9,-,N/A,,Clear,230,2013-09-15 15:53:00
12:53 PM,70.0,46.0,42,30.09,10.0,SSE,8.1,-,N/A,,Clear,160,2013-09-15 16:53:00
1:53 PM,73.0,44.1,35,30.06,10.0,SW,8.1,-,N/A,,Clear,220,2013-09-15 17:53:00
2:53 PM,73.0,45.0,37,30.04,10.0,South,10.4,16.1,N/A,,Clear,190,2013-09-15 18:53:00
3:53 PM,73.0,44.1,35,30.01,10.0,SSW,6.9,-,N/A,,Overcast,200,2013-09-15 19:53:00
4:53 PM,75.0,43.0,32,30.00,10.0,SW,10.4,16.1,N/A,,Clear,220,2013-09-15 20:53:00
5:53 PM,75.0,45.0,34,30.01,10.0,SW,6.9,-,N/A,,Overcast,230,2013-09-15 21:53:00
6:53 PM,73.0,43.0,34,30.03,10.0,West,5.8,-,N/A,,Overcast,270,2013-09-15 22:53:00
7:53 PM,61.0,54.0,78,30.06,10.0,North,5.8,-,0.00,,Overcast,350,2013-09-15 23:53:00
8:53 PM,57.9,55.9,93,30.06,5.0,NE,8.1,-,0.15,Rain,Light Rain,40,2013-09-16 00:53:00
9:53 PM,57.9,55.9,93,30.09,10.0,East,4.6,-,0.01,,Overcast,80,2013-09-16 01:53:00
10:53 PM,57.9,55.0,90,30.09,10.0,ENE,10.4,-,0.00,Rain,Light Rain,70,2013-09-16 02:53:00
11:49 PM,57.2,55.4,94,30.12,10.0,East,9.2,-,0.00,,Overcast,80,2013-09-16 03:49:00
11:53 PM,57.0,55.0,93,30.10,10.0,East,9.2,-,0.00,,Overcast,80,2013-09-16 03:53:00